カタログに戻る

ORBCOMM FM 114

運用中通信LEO
NORAD 41179·PAYLOAD·🇺🇸 United States

打ち上げ Dec 22, 2015 から Cape Canaveral Space Force Station

Loading…

次のパス (今後24時間)

TLE

最新Source: Space-Track

元期: Sep 14, 2026, 11:43 UTC

1 41179U 15081A   26257.48825645  .00000241  00000-0  87226-4 0  9997
2 41179  47.0049 299.7711 0003300 253.2451 106.8073 14.58941545570791

AllMySatでORBCOMM FM 114をリアルタイム追跡

Download on the App Store